STARLINK-31962, 59936

Orbit data source: Space-Track

STARLINK-31962, 59936 is a payload satellite owned by SpaceX/Seattle (US) in LEO that was launched on Sat, 01 Jun 2024 UTC via an FALCON 9 launch vehicle from the Air Force Eastern Test Range (AFETR). Payload-class satellites include a variety of spacecraft equipped with specific instruments for various scientific and technological missions. These include communications satellites like Starlink; space stations such as the ISS; scientific satellites like the Hubble; Earth observation satellites from companies like Planet Labs, Umbra, and HawkEye 360; GPS; miniature CubeSats for education and research; and military/defense satellites.

Loading next visibility...
Identifier
59936, 2024-106Q
Orbit
LEO
Country
Flag of USUS
Related business
Manufacturer
SpaceX/Seattle
Mission
Operational Commercial Communications
Bus & Motor
STARLINK V2M, Unknown motor
Mass
730 kg wet, ~700 kg dry
Launch date (UTC)
2024-06-01 (2 years ago)
Launch vehicle
FALCON 9
Launch site
Air Force Eastern Test Range (AFETR)
Object type
Payload
Rocket body
Debris
Shape & HBR
Box + 2 Pan, 17.7 m
Radar Cross Section
33.884 m², Large (>1 m²)

Expand to show TLE details & history
Last TLE update: 14 hours ago

TLE from 14 hours ago
0 STARLINK-31962
1 59936U 24106Q   26037.33274023 -.00002121  00000-0 -67682-4 0  9998
2 59936  42.9945 149.9056 0000535 284.8228  75.2564 15.27537323 95728
Epoch: 2026-02-06T07:59Z
TLE epoch observation values (Epoch: 2026-02-06T07:59:08.755Z)
Latitude
-0.00005°
Longitude
-106.35306°
Altitude
482.858 km
Speed
7.626 km/s
True Right ascension
09h 59m 37s
True Declination
0° 00' 00"
Sunlit
Object was in full shadow at epoch
Visualization orbit readout
Latitude
Unknown
Longitude
Unknown
Altitude
Unknown
Speed
Unknown
Apparent Right ascension
Unknown
Apparent Declination
Unknown
Sunlit
N/A
Visualization observer readout
Local Sidereal Time
00:30:02
Azimuth
Unknown
Elevation
Unknown
Doppler factor
Unknown
Orbital elements
Apogee altitude
485.49 km
Perigee altitude
484.756 km
Semi-major axis
6,863.26 km
Eccentricity
0.00005
Inclination
42.9945°
RAAN
149.9056°
Arg. of periapsis
284.8228°
True anomaly
75.26233°
Mean anomaly
75.2564°
Eccentric anomaly
75.25936°
Mean motion
3.81722 °/min
Orbital period
94.31 mins
BSTAR
-0.000067682
Loading maneuver chart data...
Computing Atmospheric mass density...
Loading historical data...
Loading historical data...
Loading historical data...
Loading historical data...
Loading historical data...
Loading historical data...
Loading historical data...

Documentation

Showing up to 5 results
|